Time,TemperatureF,DewpointF,PressureIn,WindDirection,WindDirectionDegrees,WindSpeedMPH,WindSpeedGustMPH,Humidity,HourlyPrecipIn,Conditions,Clouds,dailyrainin,SoftwareType,DateUTC
2013-06-11 00:02:00,51.6,26.6,29.94,WSW,241,0.0,0.0,38,0.00,,,0.00,WUHU216WMR968SP,2013-06-11 07:02:00,
2013-06-11 00:07:00,51.8,26.1,29.94,WNW,285,0.0,0.0,37,0.00,,,0.00,WUHU216WMR968SP,2013-06-11 07:07:00,
2013-06-11 00:12:00,52.0,26.3,29.94,WNW,285,0.0,0.0,37,0.00,,,0.00,WUHU216WMR968SP,2013-06-11 07:12:00,
2013-06-11 00:17:00,52.0,26.3,29.94,WNW,285,0.0,0.0,37,0.00,,,0.00,WUHU216WMR968SP,2013-06-11 07:17:00,
2013-06-11 00:22:00,52.0,25.6,29.94,North,357,0.0,3.1,36,0.00,,,0.00,WUHU216WMR968SP,2013-06-11 07:22:00,
2013-06-11 00:27:00,52.3,25.9,29.94,North,357,0.0,3.1,36,0.00,,,0.00,WUHU216WMR968SP,2013-06-11 07:27:00,
2013-06-11 00:32:00,52.5,26.1,29.94,North,357,0.0,0.0,36,0.00,,,0.00,WUHU216WMR968SP,2013-06-11 07:32:00,
2013-06-11 00:37:00,52.7,25.6,29.94,North,357,0.0,0.0,35,0.00,,,0.00,WUHU216WMR968SP,2013-06-11 07:37:00,
2013-06-11 00:42:00,52.9,24.3,29.94,North,357,0.0,0.0,33,0.00,,,0.00,WUHU216WMR968SP,2013-06-11 07:42:00,
2013-06-11 00:47:00,53.1,24.5,29.94,North,357,0.0,0.0,33,0.00,,,0.00,WUHU216WMR968SP,2013-06-11 07:47:00,
2013-06-11 00:52:00,53.1,23.8,29.94,West,272,0.0,0.0,32,0.00,,,0.00,WUHU216WMR968SP,2013-06-11 07:52:00,
2013-06-11 00:57:00,53.1,23.0,29.94,WSW,256,0.0,0.0,31,0.00,,,0.00,WUHU216WMR968SP,2013-06-11 07:57:00,
2013-06-11 01:02:00,53.2,23.1,29.94,WSW,256,0.0,0.0,31,0.00,,,0.00,WUHU216WMR968SP,2013-06-11 08:02:00,
2013-06-11 01:07:00,53.2,23.1,29.94,WSW,256,0.0,0.0,31,0.00,,,0.00,WUHU216WMR968SP,2013-06-11 08:07:00,
2013-06-11 01:12:00,53.2,23.1,29.94,WSW,256,0.0,0.0,31,0.00,,,0.00,WUHU216WMR968SP,2013-06-11 08:12:00,
2013-06-11 01:17:00,53.2,21.5,29.94,SSW,202,0.0,0.0,29,0.00,,,0.00,WUHU216WMR968SP,2013-06-11 08:17:00,
2013-06-11 01:22:00,53.2,21.5,29.94,SW,214,0.0,0.0,29,0.00,,,0.00,WUHU216WMR968SP,2013-06-11 08:22:00,
2013-06-11 01:27:00,53.1,20.6,29.94,West,265,0.0,2.7,28,0.00,,,0.00,WUHU216WMR968SP,2013-06-11 08:27:00,
2013-06-11 01:32:00,53.1,20.6,29.94,West,265,0.0,2.7,28,0.00,,,0.00,WUHU216WMR968SP,2013-06-11 08:32:00,
2013-06-11 01:37:00,53.1,20.6,29.94,West,265,0.0,0.0,28,0.00,,,0.00,WUHU216WMR968SP,2013-06-11 08:37:00,
2013-06-11 01:42:00,53.1,20.6,29.94,WNW,294,0.0,3.6,28,0.00,,,0.00,WUHU216WMR968SP,2013-06-11 08:42:00,
2013-06-11 01:47:00,53.1,19.8,29.94,WNW,288,2.2,3.6,27,0.00,,,0.00,WUHU216WMR968SP,2013-06-11 08:47:00,
2013-06-11 01:52:00,53.1,19.8,29.94,WNW,288,0.0,3.6,27,0.00,,,0.00,WUHU216WMR968SP,2013-06-11 08:52:00,
2013-06-11 01:57:00,53.1,19.8,29.94,WNW,288,0.0,2.2,27,0.00,,,0.00,WUHU216WMR968SP,2013-06-11 08:57:00,
2013-06-11 02:02:00,53.1,20.6,29.94,WNW,288,0.0,0.0,28,0.00,,,0.00,WUHU216WMR968SP,2013-06-11 09:02:00,
2013-06-11 02:07:00,52.9,20.5,29.94,WNW,288,0.0,0.0,28,0.00,,,0.00,WUHU216WMR968SP,2013-06-11 09:07:00,
2013-06-11 02:12:00,52.9,19.6,29.94,WNW,288,0.0,0.0,27,0.00,,,0.00,WUHU216WMR968SP,2013-06-11 09:12:00,
2013-06-11 02:17:00,52.9,19.6,29.94,WNW,288,0.0,0.0,27,0.00,,,0.00,WUHU216WMR968SP,2013-06-11 09:17:00,
2013-06-11 02:22:00,52.9,20.5,29.94,WNW,288,0.0,0.0,28,0.00,,,0.00,WUHU216WMR968SP,2013-06-11 09:22:00,
2013-06-11 02:27:00,52.9,20.5,29.94,WNW,288,0.0,0.0,28,0.00,,,0.00,WUHU216WMR968SP,2013-06-11 09:27:00,
2013-06-11 02:32:00,52.5,21.7,29.94,WNW,288,0.0,0.0,30,0.00,,,0.00,WUHU216WMR968SP,2013-06-11 09:32:00,
2013-06-11 02:37:00,52.3,20.8,29.94,WNW,288,0.0,0.0,29,0.00,,,0.00,WUHU216WMR968SP,2013-06-11 09:37:00,
2013-06-11 02:42:00,52.3,20.8,29.94,WNW,288,0.0,0.0,29,0.00,,,0.00,WUHU216WMR968SP,2013-06-11 09:42:00,
2013-06-11 02:47:00,52.3,21.5,29.94,WNW,288,0.0,0.0,30,0.00,,,0.00,WUHU216WMR968SP,2013-06-11 09:47:00,
2013-06-11 02:52:00,52.3,21.5,29.97,WNW,288,0.0,0.0,30,0.00,,,0.00,WUHU216WMR968SP,2013-06-11 09:52:00,
2013-06-11 03:35:00,52.0,25.6,29.97,WNW,288,0.0,0.0,36,0.00,,,0.00,WUHU216WMR968SP,2013-06-11 10:35:00,
2013-06-11 03:40:00,52.0,25.0,29.97,WNW,288,0.0,0.0,35,0.00,,,0.00,WUHU216WMR968SP,2013-06-11 10:40:00,
2013-06-11 03:45:00,52.0,25.6,29.97,WNW,288,0.0,0.0,36,0.00,,,0.00,WUHU216WMR968SP,2013-06-11 10:45:00,
2013-06-11 03:50:00,52.0,25.6,29.97,WNW,288,0.0,0.0,36,0.00,,,0.00,WUHU216WMR968SP,2013-06-11 10:50:00,
2013-06-11 03:55:00,51.8,25.5,29.97,WNW,288,0.0,0.0,36,0.00,,,0.00,WUHU216WMR968SP,2013-06-11 10:55:00,
2013-06-11 04:00:00,51.6,25.9,29.97,WNW,288,0.0,0.0,37,0.00,,,0.00,WUHU216WMR968SP,2013-06-11 11:00:00,
2013-06-11 04:05:00,51.6,25.9,29.97,WNW,288,0.0,0.0,37,0.00,,,0.00,WUHU216WMR968SP,2013-06-11 11:05:00,
2013-06-11 04:10:00,51.4,25.8,29.97,WNW,288,0.0,0.0,37,0.00,,,0.00,WUHU216WMR968SP,2013-06-11 11:10:00,
2013-06-11 04:15:00,51.4,25.8,29.97,WNW,288,0.0,0.0,37,0.00,,,0.00,WUHU216WMR968SP,2013-06-11 11:15:00,
2013-06-11 04:20:00,51.4,26.4,29.97,WNW,288,0.0,0.0,38,0.00,,,0.00,WUHU216WMR968SP,2013-06-11 11:20:00,
2013-06-11 04:25:00,51.4,26.4,29.97,WNW,288,0.0,0.0,38,0.00,,,0.00,WUHU216WMR968SP,2013-06-11 11:25:00,
2013-06-11 04:30:00,51.4,25.8,29.97,WNW,288,0.0,0.0,37,0.00,,,0.00,WUHU216WMR968SP,2013-06-11 11:30:00,
2013-06-11 04:35:00,51.6,25.9,29.97,WNW,288,0.0,0.0,37,0.00,,,0.00,WUHU216WMR968SP,2013-06-11 11:35:00,
2013-06-11 04:40:00,51.6,25.9,29.97,WNW,288,0.0,0.0,37,0.00,,,0.00,WUHU216WMR968SP,2013-06-11 11:40:00,
2013-06-11 04:45:00,51.6,25.9,29.97,WNW,288,0.0,0.0,37,0.00,,,0.00,WUHU216WMR968SP,2013-06-11 11:45:00,
2013-06-11 04:50:00,51.6,25.9,29.97,WNW,288,0.0,0.0,37,0.00,,,0.00,WUHU216WMR968SP,2013-06-11 11:50:00,
2013-06-11 04:55:00,51.6,25.9,29.97,WNW,288,0.0,0.0,37,0.00,,,0.00,WUHU216WMR968SP,2013-06-11 11:55:00,
2013-06-11 05:00:00,51.6,25.3,29.97,WNW,288,0.0,0.0,36,0.00,,,0.00,WUHU216WMR968SP,2013-06-11 12:00:00,
2013-06-11 05:05:00,51.6,25.3,29.97,WNW,288,0.0,0.0,36,0.00,,,0.00,WUHU216WMR968SP,2013-06-11 12:05:00,
2013-06-11 05:10:00,51.6,25.3,29.97,WNW,288,0.0,0.0,36,0.00,,,0.00,WUHU216WMR968SP,2013-06-11 12:10:00,
2013-06-11 05:15:00,51.6,25.3,29.97,WNW,288,0.0,0.0,36,0.00,,,0.00,WUHU216WMR968SP,2013-06-11 12:15:00,
2013-06-11 05:20:00,51.6,24.6,29.97,WNW,288,0.0,0.0,35,0.00,,,0.00,WUHU216WMR968SP,2013-06-11 12:20:00,
2013-06-11 05:25:00,51.6,24.6,29.97,WNW,288,0.0,0.0,35,0.00,,,0.00,WUHU216WMR968SP,2013-06-11 12:25:00,
2013-06-11 05:30:00,51.6,24.6,29.97,WNW,288,0.0,0.0,35,0.00,,,0.00,WUHU216WMR968SP,2013-06-11 12:30:00,
2013-06-11 05:35:00,51.6,25.3,29.97,WNW,288,0.0,0.0,36,0.00,,,0.00,WUHU216WMR968SP,2013-06-11 12:35:00,
2013-06-11 05:40:00,51.6,25.3,29.97,WNW,288,0.0,0.0,36,0.00,,,0.00,WUHU216WMR968SP,2013-06-11 12:40:00,
2013-06-11 05:45:00,51.6,25.3,29.97,WNW,288,0.0,0.0,36,0.00,,,0.00,WUHU216WMR968SP,2013-06-11 12:45:00,
2013-06-11 05:50:00,51.4,25.1,30.00,WNW,288,0.0,0.0,36,0.00,,,0.00,WUHU216WMR968SP,2013-06-11 12:50:00,
2013-06-11 05:55:00,51.4,25.1,30.00,WNW,288,0.0,0.0,36,0.00,,,0.00,WUHU216WMR968SP,2013-06-11 12:55:00,
2013-06-11 06:00:00,51.4,25.1,30.00,WNW,288,0.0,0.0,36,0.00,,,0.00,WUHU216WMR968SP,2013-06-11 13:00:00,
2013-06-11 06:05:00,51.4,25.1,30.00,WNW,288,0.0,0.0,36,0.00,,,0.00,WUHU216WMR968SP,2013-06-11 13:05:00,
2013-06-11 06:10:00,51.4,25.1,30.00,West,278,0.0,0.0,36,0.00,,,0.00,WUHU216WMR968SP,2013-06-11 13:10:00,
2013-06-11 06:15:00,51.4,25.1,30.00,WSW,258,0.0,0.0,36,0.00,,,0.00,WUHU216WMR968SP,2013-06-11 13:15:00,
2013-06-11 06:20:00,51.4,25.1,30.00,West,259,0.0,0.0,36,0.00,,,0.00,WUHU216WMR968SP,2013-06-11 13:20:00,
2013-06-11 06:25:00,51.6,25.3,30.00,SSW,195,2.2,2.7,36,0.00,,,0.00,WUHU216WMR968SP,2013-06-11 13:25:00,
2013-06-11 06:30:00,51.6,25.3,30.00,SSW,195,0.0,2.7,36,0.00,,,0.00,WUHU216WMR968SP,2013-06-11 13:30:00,
2013-06-11 06:35:00,51.6,25.3,30.00,SSW,193,0.0,2.7,36,0.00,,,0.00,WUHU216WMR968SP,2013-06-11 13:35:00,
2013-06-11 06:40:00,51.6,25.9,30.00,SSW,193,0.0,0.0,37,0.00,,,0.00,WUHU216WMR968SP,2013-06-11 13:40:00,
2013-06-11 06:45:00,51.6,25.9,30.00,South,190,0.0,0.0,37,0.00,,,0.00,WUHU216WMR968SP,2013-06-11 13:45:00,
2013-06-11 06:50:00,51.6,25.9,30.00,South,190,0.0,0.0,37,0.00,,,0.00,WUHU216WMR968SP,2013-06-11 13:50:00,
2013-06-11 06:55:00,51.6,25.9,30.00,SSW,196,0.0,0.0,37,0.00,,,0.00,WUHU216WMR968SP,2013-06-11 13:55:00,
2013-06-11 07:00:00,51.8,25.5,30.00,South,185,0.0,0.0,36,0.00,,,0.00,WUHU216WMR968SP,2013-06-11 14:00:00,
2013-06-11 07:04:00,51.8,25.5,30.00,South,182,0.0,0.0,36,0.00,,,0.00,WUHU216WMR968SP,2013-06-11 14:04:00,
2013-06-11 07:09:00,52.0,25.6,30.00,South,173,0.0,0.0,36,0.00,,,0.00,WUHU216WMR968SP,2013-06-11 14:09:00,
2013-06-11 07:15:00,52.2,25.8,30.00,South,171,0.0,0.0,36,0.00,,,0.00,WUHU216WMR968SP,2013-06-11 14:15:00,
2013-06-11 07:20:00,52.3,25.9,30.00,South,172,0.0,0.0,36,0.00,,,0.00,WUHU216WMR968SP,2013-06-11 14:20:00,
2013-06-11 07:25:00,52.5,26.1,30.00,SSW,197,0.0,0.0,36,0.00,,,0.00,WUHU216WMR968SP,2013-06-11 14:25:00,
2013-06-11 07:30:00,52.5,26.1,30.00,SSW,200,0.0,0.0,36,0.00,,,0.00,WUHU216WMR968SP,2013-06-11 14:30:00,
2013-06-11 07:35:00,52.7,26.3,30.00,SSW,196,0.0,0.0,36,0.00,,,0.00,WUHU216WMR968SP,2013-06-11 14:35:00,
2013-06-11 07:40:00,52.9,26.4,30.00,SSW,196,0.0,0.0,36,0.00,,,0.00,WUHU216WMR968SP,2013-06-11 14:40:00,
2013-06-11 07:45:00,53.1,26.6,30.00,SSW,206,0.0,0.0,36,0.00,,,0.00,WUHU216WMR968SP,2013-06-11 14:45:00,
2013-06-11 07:50:00,53.1,25.9,30.03,SSW,205,0.0,0.0,35,0.00,,,0.00,WUHU216WMR968SP,2013-06-11 14:50:00,
2013-06-11 07:54:00,53.1,25.9,30.03,South,170,0.0,0.0,35,0.00,,,0.00,WUHU216WMR968SP,2013-06-11 14:54:00,
2013-06-11 07:59:00,53.1,25.2,30.03,South,170,0.0,0.0,34,0.00,,,0.00,WUHU216WMR968SP,2013-06-11 14:59:00,
2013-06-11 08:04:00,53.2,25.3,30.00,South,176,0.0,0.0,34,0.00,,,0.00,WUHU216WMR968SP,2013-06-11 15:04:00,
2013-06-11 08:09:00,53.4,25.5,30.00,SSE,158,0.0,0.0,34,0.00,,,0.00,WUHU216WMR968SP,2013-06-11 15:09:00,
2013-06-11 08:14:00,53.6,24.9,30.00,SSE,157,0.0,0.0,33,0.00,,,0.00,WUHU216WMR968SP,2013-06-11 15:14:00,
2013-06-11 08:19:00,53.8,25.1,30.03,SSE,153,0.0,0.0,33,0.00,,,0.00,WUHU216WMR968SP,2013-06-11 15:19:00,
2013-06-11 08:24:00,54.3,25.6,30.03,SE,142,0.0,0.0,33,0.00,,,0.00,WUHU216WMR968SP,2013-06-11 15:24:00,
2013-06-11 08:29:00,54.3,23.3,30.03,SSE,159,2.7,4.0,30,0.00,,,0.00,WUHU216WMR968SP,2013-06-11 15:29:00,
2013-06-11 08:34:00,54.3,23.3,30.03,SSE,159,0.0,4.0,30,0.00,,,0.00,WUHU216WMR968SP,2013-06-11 15:34:00,
2013-06-11 08:39:00,54.5,23.5,30.03,SSW,200,0.0,3.6,30,0.00,,,0.00,WUHU216WMR968SP,2013-06-11 15:39:00,
2013-06-11 08:44:00,54.5,23.5,30.03,SSW,205,0.0,3.1,30,0.00,,,0.00,WUHU216WMR968SP,2013-06-11 15:44:00,
2013-06-11 08:49:00,54.3,23.3,30.03,South,173,0.0,0.0,30,0.00,,,0.00,WUHU216WMR968SP,2013-06-11 15:49:00,
2013-06-11 08:54:00,54.1,23.1,30.03,SE,138,0.0,3.6,30,0.00,,,0.00,WUHU216WMR968SP,2013-06-11 15:54:00,
2013-06-11 08:59:00,54.3,23.3,30.03,SSE,166,0.0,3.6,30,0.00,,,0.00,WUHU216WMR968SP,2013-06-11 15:59:00,
2013-06-11 09:04:00,54.5,23.5,30.03,WSW,243,0.0,0.0,30,0.00,,,0.00,WUHU216WMR968SP,2013-06-11 16:04:00,
2013-06-11 09:09:00,54.5,23.5,30.03,SW,222,0.0,0.0,30,0.00,,,0.00,WUHU216WMR968SP,2013-06-11 16:09:00,
2013-06-11 09:14:00,54.5,22.7,30.03,South,170,0.0,2.7,29,0.00,,,0.00,WUHU216WMR968SP,2013-06-11 16:14:00,
2013-06-11 09:19:00,54.5,23.5,30.03,WSW,240,0.0,3.1,30,0.00,,,0.00,WUHU216WMR968SP,2013-06-11 16:19:00,
2013-06-11 09:24:00,54.5,22.7,30.03,SW,220,0.0,3.1,29,0.00,,,0.00,WUHU216WMR968SP,2013-06-11 16:24:00,
2013-06-11 09:29:00,54.9,23.0,30.03,SW,214,0.0,0.0,29,0.00,,,0.00,WUHU216WMR968SP,2013-06-11 16:29:00,
2013-06-11 09:34:00,55.4,22.6,30.03,South,186,0.0,0.0,28,0.00,,,0.00,WUHU216WMR968SP,2013-06-11 16:34:00,
2013-06-11 09:39:00,55.8,23.0,30.03,South,188,0.0,0.0,28,0.00,,,0.00,WUHU216WMR968SP,2013-06-11 16:39:00,
2013-06-11 09:44:00,55.9,22.2,30.03,NW,308,2.7,5.4,27,0.00,,,0.00,WUHU216WMR968SP,2013-06-11 16:44:00,
2013-06-11 09:49:00,55.9,22.2,30.03,WSW,246,0.0,6.3,27,0.00,,,0.00,WUHU216WMR968SP,2013-06-11 16:49:00,
2013-06-11 09:54:00,55.9,22.2,30.03,WSW,247,0.0,6.3,27,0.00,,,0.00,WUHU216WMR968SP,2013-06-11 16:54:00,
2013-06-11 09:59:00,55.9,22.2,30.03,NNW,331,0.0,3.1,27,0.00,,,0.00,WUHU216WMR968SP,2013-06-11 16:59:00,
2013-06-11 10:04:00,56.7,22.9,30.03,WSW,243,0.0,3.1,27,0.00,,,0.00,WUHU216WMR968SP,2013-06-11 17:04:00,
2013-06-11 10:09:00,57.2,22.4,30.03,NNW,332,2.2,4.0,26,0.00,,,0.00,WUHU216WMR968SP,2013-06-11 17:09:00,
2013-06-11 10:14:00,57.2,22.4,30.03,NW,311,0.0,4.0,26,0.00,,,0.00,WUHU216WMR968SP,2013-06-11 17:14:00,
2013-06-11 10:19:00,57.4,22.6,30.03,West,266,0.0,3.6,26,0.00,,,0.00,WUHU216WMR968SP,2013-06-11 17:19:00,
2013-06-11 10:24:00,57.6,22.8,30.03,North,357,0.0,0.0,26,0.00,,,0.00,WUHU216WMR968SP,2013-06-11 17:24:00,
2013-06-11 10:29:00,57.4,21.7,30.03,WNW,293,0.0,3.6,25,0.00,,,0.00,WUHU216WMR968SP,2013-06-11 17:29:00,
2013-06-11 10:34:00,57.6,21.9,30.03,NE,42,2.2,3.6,25,0.00,,,0.00,WUHU216WMR968SP,2013-06-11 17:34:00,
2013-06-11 10:39:00,57.9,22.1,30.03,ENE,77,3.1,4.0,25,0.00,,,0.00,WUHU216WMR968SP,2013-06-11 17:39:00,
2013-06-11 10:44:00,58.3,22.5,30.03,ESE,104,0.0,4.0,25,0.00,,,0.00,WUHU216WMR968SP,2013-06-11 17:44:00,
2013-06-11 10:49:00,58.1,22.3,30.03,NE,47,2.2,3.6,25,0.00,,,0.00,WUHU216WMR968SP,2013-06-11 17:49:00,
2013-06-11 10:54:00,57.9,22.1,30.03,ENE,57,0.0,4.0,25,0.00,,,0.00,WUHU216WMR968SP,2013-06-11 17:54:00,
2013-06-11 10:59:00,58.3,22.5,30.03,NE,52,2.2,4.0,25,0.00,,,0.00,WUHU216WMR968SP,2013-06-11 17:59:00,
2013-06-11 11:04:00,59.2,22.3,30.03,ENE,68,0.0,5.8,24,0.00,,,0.00,WUHU216WMR968SP,2013-06-11 18:04:00,
2013-06-11 11:09:00,60.4,23.3,30.03,WNW,296,0.0,5.8,24,0.00,,,0.00,WUHU216WMR968SP,2013-06-11 18:09:00,
2013-06-11 11:14:00,61.0,23.8,30.03,WSW,248,0.0,3.6,24,0.00,,,0.00,WUHU216WMR968SP,2013-06-11 18:14:00,
2013-06-11 11:19:00,61.0,20.7,30.03,WSW,249,0.0,3.6,21,0.00,,,0.00,WUHU216WMR968SP,2013-06-11 18:19:00,
2013-06-11 11:24:00,60.4,21.3,30.03,WSW,246,0.0,3.1,22,0.00,,,0.00,WUHU216WMR968SP,2013-06-11 18:24:00,
2013-06-11 11:29:00,60.3,23.2,30.03,North,353,0.0,3.1,24,0.00,,,0.00,WUHU216WMR968SP,2013-06-11 18:29:00,
2013-06-11 11:34:00,60.6,21.4,30.03,WNW,296,0.0,3.1,22,0.00,,,0.00,WUHU216WMR968SP,2013-06-11 18:34:00,
2013-06-11 11:39:00,60.6,21.4,30.03,WNW,296,0.0,3.6,22,0.00,,,0.00,WUHU216WMR968SP,2013-06-11 18:39:00,
2013-06-11 11:44:00,60.8,20.5,30.03,NW,307,0.0,3.6,21,0.00,,,0.00,WUHU216WMR968SP,2013-06-11 18:44:00,
2013-06-11 11:49:00,60.6,21.4,30.03,WNW,284,3.1,5.8,22,0.00,,,0.00,WUHU216WMR968SP,2013-06-11 18:49:00,
2013-06-11 11:54:00,60.6,21.4,30.03,SSW,198,2.2,5.8,22,0.00,,,0.00,WUHU216WMR968SP,2013-06-11 18:54:00,
2013-06-11 11:59:00,60.8,20.5,30.03,SE,126,4.0,4.9,21,0.00,,,0.00,WUHU216WMR968SP,2013-06-11 18:59:00,
2013-06-11 12:04:00,60.6,21.4,30.03,NNW,329,0.0,4.9,22,0.00,,,0.00,WUHU216WMR968SP,2013-06-11 19:04:00,
2013-06-11 12:09:00,60.4,21.3,30.03,SSW,212,0.0,4.5,22,0.00,,,0.00,WUHU216WMR968SP,2013-06-11 19:09:00,
2013-06-11 12:14:00,60.3,21.2,30.03,SW,214,2.7,4.5,22,0.00,,,0.00,WUHU216WMR968SP,2013-06-11 19:14:00,
2013-06-11 12:19:00,60.6,21.4,30.03,West,263,2.7,4.5,22,0.00,,,0.00,WUHU216WMR968SP,2013-06-11 19:19:00,
2013-06-11 12:24:00,61.0,18.4,30.03,ESE,111,0.0,5.4,19,0.00,,,0.00,WUHU216WMR968SP,2013-06-11 19:24:00,
2013-06-11 12:29:00,61.0,18.4,30.03,NNW,331,2.2,5.4,19,0.00,,,0.00,WUHU216WMR968SP,2013-06-11 19:29:00,
2013-06-11 12:34:00,61.3,18.6,30.06,WSW,244,0.0,5.4,19,0.00,,,0.00,WUHU216WMR968SP,2013-06-11 19:34:00,
2013-06-11 12:39:00,61.3,18.6,30.06,SW,224,2.7,5.8,19,0.00,,,0.00,WUHU216WMR968SP,2013-06-11 19:39:00,
2013-06-11 12:44:00,61.2,18.5,30.06,South,181,2.2,5.8,19,0.00,,,0.00,WUHU216WMR968SP,2013-06-11 19:44:00,
2013-06-11 12:49:00,61.2,18.5,30.03,West,263,3.6,5.4,19,0.00,,,0.00,WUHU216WMR968SP,2013-06-11 19:49:00,
2013-06-11 12:55:00,61.0,18.4,30.03,SSW,207,2.7,6.3,19,0.00,,,0.00,WUHU216WMR968SP,2013-06-11 19:55:00,
2013-06-11 13:00:00,61.0,18.4,30.03,SW,214,0.0,6.3,19,0.00,,,0.00,WUHU216WMR968SP,2013-06-11 20:00:00,
2013-06-11 13:05:00,61.3,18.6,30.06,SW,220,0.0,4.0,19,0.00,,,0.00,WUHU216WMR968SP,2013-06-11 20:05:00,
2013-06-11 13:10:00,61.0,18.4,30.06,SSW,192,3.1,6.3,19,0.00,,,0.00,WUHU216WMR968SP,2013-06-11 20:10:00,
2013-06-11 13:15:00,61.2,18.5,30.06,SW,230,0.0,6.3,19,0.00,,,0.00,WUHU216WMR968SP,2013-06-11 20:15:00,
2013-06-11 13:20:00,61.0,18.4,30.06,NNW,341,2.2,7.6,19,0.00,,,0.00,WUHU216WMR968SP,2013-06-11 20:20:00,
2013-06-11 13:25:00,61.0,18.4,30.06,West,279,3.1,7.6,19,0.00,,,0.00,WUHU216WMR968SP,2013-06-11 20:25:00,
2013-06-11 13:30:00,61.0,18.4,30.06,WSW,258,3.1,6.3,19,0.00,,,0.00,WUHU216WMR968SP,2013-06-11 20:30:00,
2013-06-11 13:35:00,61.3,18.6,30.03,WSW,249,4.0,5.8,19,0.00,,,0.00,WUHU216WMR968SP,2013-06-11 20:35:00,
2013-06-11 13:40:00,61.5,18.8,30.03,WSW,238,0.0,6.7,19,0.00,,,0.00,WUHU216WMR968SP,2013-06-11 20:40:00,
2013-06-11 13:45:00,61.9,19.1,30.03,West,265,4.0,6.7,19,0.00,,,0.00,WUHU216WMR968SP,2013-06-11 20:45:00,
2013-06-11 13:50:00,61.3,18.6,30.06,SW,215,4.0,5.8,19,0.00,,,0.00,WUHU216WMR968SP,2013-06-11 20:50:00,
2013-06-11 13:55:00,61.2,18.5,30.06,SW,231,0.0,5.4,19,0.00,,,0.00,WUHU216WMR968SP,2013-06-11 20:55:00,
2013-06-11 14:00:00,61.2,18.5,30.06,NNW,327,0.0,4.0,19,0.00,,,0.00,WUHU216WMR968SP,2013-06-11 21:00:00,
2013-06-11 14:05:00,60.8,18.2,30.06,SW,220,2.2,4.0,19,0.00,,,0.00,WUHU216WMR968SP,2013-06-11 21:05:00,
2013-06-11 14:10:00,60.4,21.3,30.06,SW,220,0.0,3.6,22,0.00,,,0.00,WUHU216WMR968SP,2013-06-11 21:10:00,
2013-06-11 14:15:00,60.4,21.3,30.06,WSW,237,0.0,3.6,22,0.00,,,0.00,WUHU216WMR968SP,2013-06-11 21:15:00,
2013-06-11 14:20:00,60.4,21.3,30.06,SW,235,0.0,3.6,22,0.00,,,0.00,WUHU216WMR968SP,2013-06-11 21:20:00,
2013-06-11 14:25:00,60.6,21.4,30.06,WNW,300,2.2,5.8,22,0.00,,,0.00,WUHU216WMR968SP,2013-06-11 21:25:00,
2013-06-11 14:30:00,61.0,20.7,30.06,SE,142,0.0,5.8,21,0.00,,,0.00,WUHU216WMR968SP,2013-06-11 21:30:00,
2013-06-11 14:35:00,61.3,20.9,30.06,SE,136,0.0,4.0,21,0.00,,,0.00,WUHU216WMR968SP,2013-06-11 21:35:00,
2013-06-11 14:40:00,61.7,21.3,30.06,SW,225,0.0,3.1,21,0.00,,,0.00,WUHU216WMR968SP,2013-06-11 21:40:00,
2013-06-11 14:45:00,61.5,21.1,30.06,SE,137,3.1,4.9,21,0.00,,,0.00,WUHU216WMR968SP,2013-06-11 21:45:00,
2013-06-11 14:50:00,61.3,20.9,30.06,SE,143,0.0,4.9,21,0.00,,,0.00,WUHU216WMR968SP,2013-06-11 21:50:00,
2013-06-11 14:55:00,61.3,20.9,30.06,ENE,64,0.0,4.0,21,0.00,,,0.00,WUHU216WMR968SP,2013-06-11 21:55:00,
2013-06-11 15:00:00,61.5,21.1,30.06,East,82,2.2,3.6,21,0.00,,,0.00,WUHU216WMR968SP,2013-06-11 22:00:00,
2013-06-11 15:05:00,61.5,18.8,30.06,North,353,0.0,3.6,19,0.00,,,0.00,WUHU216WMR968SP,2013-06-11 22:05:00,
2013-06-11 15:10:00,61.5,21.1,30.06,North,353,0.0,2.7,21,0.00,,,0.00,WUHU216WMR968SP,2013-06-11 22:10:00,
2013-06-11 15:15:00,61.7,21.3,30.06,NE,37,0.0,3.6,21,0.00,,,0.00,WUHU216WMR968SP,2013-06-11 22:15:00,
2013-06-11 15:20:00,61.5,21.1,30.06,ESE,108,2.2,3.6,21,0.00,,,0.00,WUHU216WMR968SP,2013-06-11 22:20:00,
2013-06-11 15:25:00,61.3,20.9,30.06,NNW,343,2.2,4.0,21,0.00,,,0.00,WUHU216WMR968SP,2013-06-11 22:25:00,
2013-06-11 15:30:00,61.7,21.3,30.06,NNW,341,0.0,4.0,21,0.00,,,0.00,WUHU216WMR968SP,2013-06-11 22:30:00,
2013-06-11 15:35:00,62.2,21.7,30.06,NNW,341,0.0,2.2,21,0.00,,,0.00,WUHU216WMR968SP,2013-06-11 22:35:00,
2013-06-11 15:40:00,62.2,21.7,30.06,SE,125,0.0,4.0,21,0.00,,,0.00,WUHU216WMR968SP,2013-06-11 22:40:00,
2013-06-11 15:45:00,62.4,21.9,30.06,ESE,121,0.0,4.0,21,0.00,,,0.00,WUHU216WMR968SP,2013-06-11 22:45:00,
2013-06-11 15:50:00,62.6,22.0,30.06,ESE,114,0.0,0.0,21,0.00,,,0.00,WUHU216WMR968SP,2013-06-11 22:50:00,
2013-06-11 15:55:00,62.8,22.2,30.06,ESE,116,0.0,0.0,21,0.00,,,0.00,WUHU216WMR968SP,2013-06-11 22:55:00,
2013-06-11 16:00:00,62.6,22.0,30.06,East,96,0.0,0.0,21,0.00,,,0.00,WUHU216WMR968SP,2013-06-11 23:00:00,
2013-06-11 16:05:00,62.1,21.6,30.06,East,87,0.0,0.0,21,0.00,,,0.00,WUHU216WMR968SP,2013-06-11 23:05:00,
2013-06-11 16:10:00,61.9,21.4,30.06,ESE,102,0.0,0.0,21,0.00,,,0.00,WUHU216WMR968SP,2013-06-11 23:10:00,
2013-06-11 16:15:00,61.5,21.1,30.06,ESE,103,2.7,3.6,21,0.00,,,0.00,WUHU216WMR968SP,2013-06-11 23:15:00,
2013-06-11 16:20:00,61.3,20.9,30.06,East,96,0.0,3.6,21,0.00,,,0.00,WUHU216WMR968SP,2013-06-11 23:20:00,
2013-06-11 16:25:00,61.2,20.9,30.06,SSE,153,0.0,2.7,21,0.00,,,0.00,WUHU216WMR968SP,2013-06-11 23:25:00,
2013-06-11 16:30:00,61.2,20.9,30.06,South,177,0.0,3.6,21,0.00,,,0.00,WUHU216WMR968SP,2013-06-11 23:30:00,
2013-06-11 16:35:00,61.5,21.1,30.06,ESE,113,0.0,3.6,21,0.00,,,0.00,WUHU216WMR968SP,2013-06-11 23:35:00,
2013-06-11 16:40:00,61.9,21.4,30.06,ESE,111,0.0,3.6,21,0.00,,,0.00,WUHU216WMR968SP,2013-06-11 23:40:00,
2013-06-11 16:45:00,62.6,22.0,30.06,East,88,0.0,3.1,21,0.00,,,0.00,WUHU216WMR968SP,2013-06-11 23:45:00,
2013-06-11 16:50:00,62.8,22.2,30.06,NW,313,3.1,4.0,21,0.00,,,0.00,WUHU216WMR968SP,2013-06-11 23:50:00,
2013-06-11 16:55:00,62.6,22.0,30.06,WNW,290,2.7,4.0,21,0.00,,,0.00,WUHU216WMR968SP,2013-06-11 23:55:00,
2013-06-11 17:00:00,62.4,21.9,30.06,West,264,0.0,3.6,21,0.00,,,0.00,WUHU216WMR968SP,2013-06-12 00:00:00,
2013-06-11 17:05:00,62.1,21.6,30.06,West,261,0.0,3.1,21,0.00,,,0.00,WUHU216WMR968SP,2013-06-12 00:05:00,
2013-06-11 17:10:00,62.1,21.6,30.06,SW,236,0.0,2.2,21,0.00,,,0.00,WUHU216WMR968SP,2013-06-12 00:10:00,
2013-06-11 17:15:00,62.2,21.7,30.06,SW,233,0.0,0.0,21,0.00,,,0.00,WUHU216WMR968SP,2013-06-12 00:15:00,
2013-06-11 17:20:00,62.6,22.0,30.06,SSW,212,0.0,3.1,21,0.00,,,0.00,WUHU216WMR968SP,2013-06-12 00:20:00,
2013-06-11 17:25:00,62.8,18.6,30.06,West,264,3.1,4.9,18,0.00,,,0.00,WUHU216WMR968SP,2013-06-12 00:25:00,
2013-06-11 17:30:00,62.6,18.4,30.06,WNW,301,3.1,6.3,18,0.00,,,0.00,WUHU216WMR968SP,2013-06-12 00:30:00,
2013-06-11 17:35:00,62.6,18.4,30.06,SW,228,0.0,6.3,18,0.00,,,0.00,WUHU216WMR968SP,2013-06-12 00:35:00,
2013-06-11 17:40:00,62.6,18.4,30.06,WNW,301,0.0,5.8,18,0.00,,,0.00,WUHU216WMR968SP,2013-06-12 00:40:00,
2013-06-11 17:45:00,62.4,19.5,30.06,WNW,286,0.0,4.0,19,0.00,,,0.00,WUHU216WMR968SP,2013-06-12 00:45:00,
2013-06-11 17:50:00,62.2,19.4,30.06,West,278,0.0,2.7,19,0.00,,,0.00,WUHU216WMR968SP,2013-06-12 00:50:00,
2013-06-11 17:55:00,62.1,19.3,30.06,West,275,0.0,2.7,19,0.00,,,0.00,WUHU216WMR968SP,2013-06-12 00:55:00,
2013-06-11 18:00:00,62.2,19.4,30.06,NW,309,2.2,3.6,19,0.00,,,0.00,WUHU216WMR968SP,2013-06-12 01:00:00,
2013-06-11 18:05:00,62.1,19.3,30.06,WSW,238,4.0,5.8,19,0.00,,,0.00,WUHU216WMR968SP,2013-06-12 01:05:00,
2013-06-11 18:10:00,61.9,19.1,30.06,NNW,340,3.6,5.8,19,0.00,,,0.00,WUHU216WMR968SP,2013-06-12 01:10:00,
2013-06-11 18:15:00,61.7,18.9,30.06,NW,318,2.7,5.4,19,0.00,,,0.00,WUHU216WMR968SP,2013-06-12 01:15:00,
2013-06-11 18:20:00,61.7,18.9,30.06,NW,304,2.2,5.4,19,0.00,,,0.00,WUHU216WMR968SP,2013-06-12 01:20:00,
2013-06-11 18:25:00,61.5,18.8,30.06,North,357,0.0,4.9,19,0.00,,,0.00,WUHU216WMR968SP,2013-06-12 01:25:00,
2013-06-11 18:30:00,61.5,18.8,30.06,WSW,252,0.0,3.1,19,0.00,,,0.00,WUHU216WMR968SP,2013-06-12 01:30:00,
2013-06-11 18:35:00,61.3,20.9,30.06,WSW,251,0.0,0.0,21,0.00,,,0.00,WUHU216WMR968SP,2013-06-12 01:35:00,
2013-06-11 18:40:00,61.2,20.9,30.06,WSW,252,0.0,0.0,21,0.00,,,0.00,WUHU216WMR968SP,2013-06-12 01:40:00,
2013-06-11 18:45:00,61.0,18.4,30.06,SW,234,2.2,5.4,19,0.00,,,0.00,WUHU216WMR968SP,2013-06-12 01:45:00,
2013-06-11 18:50:00,61.2,18.5,30.06,WSW,238,2.2,5.4,19,0.00,,,0.00,WUHU216WMR968SP,2013-06-12 01:50:00,
2013-06-11 18:55:00,61.2,18.5,30.06,WSW,240,0.0,4.0,19,0.00,,,0.00,WUHU216WMR968SP,2013-06-12 01:55:00,
2013-06-11 19:00:00,61.2,20.9,30.06,WSW,240,0.0,2.2,21,0.00,,,0.00,WUHU216WMR968SP,2013-06-12 02:00:00,
2013-06-11 19:05:00,60.8,20.5,30.06,WSW,239,0.0,0.0,21,0.00,,,0.00,WUHU216WMR968SP,2013-06-12 02:05:00,
2013-06-11 19:10:00,60.8,20.5,30.06,North,353,0.0,0.0,21,0.00,,,0.00,WUHU216WMR968SP,2013-06-12 02:10:00,
2013-06-11 19:15:00,60.4,21.3,30.06,North,353,0.0,0.0,22,0.00,,,0.00,WUHU216WMR968SP,2013-06-12 02:15:00,
2013-06-11 19:20:00,60.1,21.0,30.06,North,353,0.0,0.0,22,0.00,,,0.00,WUHU216WMR968SP,2013-06-12 02:20:00,
2013-06-11 19:25:00,60.1,21.0,30.06,North,353,0.0,0.0,22,0.00,,,0.00,WUHU216WMR968SP,2013-06-12 02:25:00,
2013-06-11 19:30:00,59.9,20.8,30.06,WNW,289,3.1,5.8,22,0.00,,,0.00,WUHU216WMR968SP,2013-06-12 02:30:00,
2013-06-11 19:35:00,59.9,20.8,30.06,WNW,286,0.0,5.8,22,0.00,,,0.00,WUHU216WMR968SP,2013-06-12 02:35:00,
2013-06-11 19:40:00,59.9,20.8,30.06,WNW,287,0.0,3.1,22,0.00,,,0.00,WUHU216WMR968SP,2013-06-12 02:40:00,
2013-06-11 19:45:00,60.1,21.0,30.06,NW,316,2.2,4.9,22,0.00,,,0.00,WUHU216WMR968SP,2013-06-12 02:45:00,
2013-06-11 19:50:00,60.1,21.0,30.06,NW,317,0.0,4.9,22,0.00,,,0.00,WUHU216WMR968SP,2013-06-12 02:50:00,
2013-06-11 19:55:00,60.1,23.0,30.06,NW,317,0.0,2.2,24,0.00,,,0.00,WUHU216WMR968SP,2013-06-12 02:55:00,
2013-06-11 20:00:00,59.7,22.7,30.06,NW,316,0.0,0.0,24,0.00,,,0.00,WUHU216WMR968SP,2013-06-12 03:00:00,
2013-06-11 20:05:00,59.7,22.7,30.06,North,357,0.0,3.6,24,0.00,,,0.00,WUHU216WMR968SP,2013-06-12 03:05:00,
2013-06-11 20:10:00,59.7,22.7,30.06,North,357,0.0,3.6,24,0.00,,,0.00,WUHU216WMR968SP,2013-06-12 03:10:00,
2013-06-11 20:15:00,59.5,22.5,30.06,North,357,0.0,0.0,24,0.00,,,0.00,WUHU216WMR968SP,2013-06-12 03:15:00,
2013-06-11 20:20:00,59.5,22.5,30.06,WNW,295,0.0,0.0,24,0.00,,,0.00,WUHU216WMR968SP,2013-06-12 03:20:00,
2013-06-11 20:25:00,59.7,22.7,30.06,WNW,295,0.0,0.0,24,0.00,,,0.00,WUHU216WMR968SP,2013-06-12 03:25:00,
2013-06-11 20:30:00,59.7,20.7,30.06,WSW,246,2.2,4.0,22,0.00,,,0.00,WUHU216WMR968SP,2013-06-12 03:30:00,
2013-06-11 20:35:00,59.5,20.5,30.06,WSW,245,0.0,4.0,22,0.00,,,0.00,WUHU216WMR968SP,2013-06-12 03:35:00,
2013-06-11 20:40:00,59.4,20.4,30.06,WSW,243,0.0,3.1,22,0.00,,,0.00,WUHU216WMR968SP,2013-06-12 03:40:00,
2013-06-11 20:45:00,59.4,20.4,30.06,WSW,242,0.0,3.1,22,0.00,,,0.00,WUHU216WMR968SP,2013-06-12 03:45:00,
2013-06-11 20:50:00,59.4,20.4,30.06,NW,312,3.6,5.8,22,0.00,,,0.00,WUHU216WMR968SP,2013-06-12 03:50:00,
2013-06-11 20:55:00,59.2,20.3,30.06,WNW,284,2.2,5.8,22,0.00,,,0.00,WUHU216WMR968SP,2013-06-12 03:55:00,
2013-06-11 21:00:00,58.8,19.9,30.06,WNW,300,3.1,5.8,22,0.00,,,0.00,WUHU216WMR968SP,2013-06-12 04:00:00,
2013-06-11 21:01:00,58.8,19.9,30.06,West,277,3.1,5.8,22,0.00,,,0.00,WUHU216WMR968SP,2013-06-12 04:01:00,
2013-06-11 21:06:00,58.5,19.7,30.06,WSW,255,2.2,5.8,22,0.00,,,0.00,WUHU216WMR968SP,2013-06-12 04:06:00,
2013-06-11 21:11:00,58.1,19.3,30.06,West,279,0.0,5.4,22,0.00,,,0.00,WUHU216WMR968SP,2013-06-12 04:11:00,
2013-06-11 21:17:00,58.1,19.3,30.06,North,353,3.1,5.4,22,0.00,,,0.00,WUHU216WMR968SP,2013-06-12 04:17:00,
2013-06-11 21:22:00,57.9,21.2,30.06,NNW,340,0.0,5.4,24,0.00,,,0.00,WUHU216WMR968SP,2013-06-12 04:22:00,
2013-06-11 21:27:00,57.7,21.0,30.06,WSW,256,0.0,3.1,24,0.00,,,0.00,WUHU216WMR968SP,2013-06-12 04:27:00,
2013-06-11 21:32:00,57.6,20.9,30.06,NNW,340,0.0,3.6,24,0.00,,,0.00,WUHU216WMR968SP,2013-06-12 04:32:00,
2013-06-11 21:37:00,57.4,20.7,30.06,NNW,333,0.0,3.6,24,0.00,,,0.00,WUHU216WMR968SP,2013-06-12 04:37:00,
2013-06-11 21:42:00,57.2,20.6,30.06,NNW,333,0.0,0.0,24,0.00,,,0.00,WUHU216WMR968SP,2013-06-12 04:42:00,
2013-06-11 21:47:00,57.2,20.6,30.06,NNW,333,0.0,0.0,24,0.00,,,0.00,WUHU216WMR968SP,2013-06-12 04:47:00,
2013-06-11 21:52:00,57.0,21.4,30.06,SW,231,0.0,4.0,25,0.00,,,0.00,WUHU216WMR968SP,2013-06-12 04:52:00,
2013-06-11 21:57:00,56.7,21.1,30.06,SW,231,0.0,4.0,25,0.00,,,0.00,WUHU216WMR968SP,2013-06-12 04:57:00,
2013-06-11 22:02:00,56.7,21.1,30.06,NW,323,0.0,2.7,25,0.00,,,0.00,WUHU216WMR968SP,2013-06-12 05:02:00,
2013-06-11 22:07:00,56.5,20.9,30.09,West,261,0.0,2.7,25,0.00,,,0.00,WUHU216WMR968SP,2013-06-12 05:07:00,
2013-06-11 22:12:00,56.3,20.8,30.09,West,262,0.0,2.2,25,0.00,,,0.00,WUHU216WMR968SP,2013-06-12 05:12:00,
2013-06-11 22:17:00,56.3,20.8,30.09,NNW,338,0.0,5.4,25,0.00,,,0.00,WUHU216WMR968SP,2013-06-12 05:17:00,
2013-06-11 22:22:00,55.9,20.4,30.09,NNW,338,0.0,5.4,25,0.00,,,0.00,WUHU216WMR968SP,2013-06-12 05:22:00,
2013-06-11 22:27:00,55.8,20.3,30.09,West,279,0.0,3.6,25,0.00,,,0.00,WUHU216WMR968SP,2013-06-12 05:27:00,
2013-06-11 22:32:00,55.6,20.2,30.09,West,278,0.0,4.0,25,0.00,,,0.00,WUHU216WMR968SP,2013-06-12 05:32:00,
2013-06-11 22:37:00,55.6,20.2,30.09,NW,321,0.0,4.0,25,0.00,,,0.00,WUHU216WMR968SP,2013-06-12 05:37:00,
2013-06-11 22:42:00,55.4,20.0,30.09,NW,307,2.7,4.0,25,0.00,,,0.00,WUHU216WMR968SP,2013-06-12 05:42:00,
2013-06-11 22:47:00,55.2,20.7,30.09,NW,307,0.0,3.1,26,0.00,,,0.00,WUHU216WMR968SP,2013-06-12 05:47:00,
2013-06-11 22:52:00,55.0,20.6,30.09,NW,307,0.0,2.7,26,0.00,,,0.00,WUHU216WMR968SP,2013-06-12 05:52:00,
2013-06-11 22:57:00,54.9,20.5,30.09,NW,307,0.0,0.0,26,0.00,,,0.00,WUHU216WMR968SP,2013-06-12 05:57:00,
2013-06-11 23:02:00,54.7,20.3,30.09,WSW,238,0.0,0.0,26,0.00,,,0.00,WUHU216WMR968SP,2013-06-12 06:02:00,
2013-06-11 23:07:00,54.5,20.1,30.09,WSW,238,0.0,0.0,26,0.00,,,0.00,WUHU216WMR968SP,2013-06-12 06:07:00,
2013-06-11 23:12:00,54.3,20.0,30.09,WSW,237,0.0,0.0,26,0.00,,,0.00,WUHU216WMR968SP,2013-06-12 06:12:00,
2013-06-11 23:17:00,54.1,19.8,30.09,WSW,238,0.0,0.0,26,0.00,,,0.00,WUHU216WMR968SP,2013-06-12 06:17:00,
2013-06-11 23:22:00,54.1,20.7,30.09,WSW,238,0.0,0.0,27,0.00,,,0.00,WUHU216WMR968SP,2013-06-12 06:22:00,
2013-06-11 23:27:00,54.0,20.6,30.09,WSW,238,0.0,0.0,27,0.00,,,0.00,WUHU216WMR968SP,2013-06-12 06:27:00,
2013-06-11 23:32:00,54.0,20.6,30.09,WSW,238,0.0,0.0,27,0.00,,,0.00,WUHU216WMR968SP,2013-06-12 06:32:00,
2013-06-11 23:37:00,53.6,21.1,30.09,WSW,237,0.0,0.0,28,0.00,,,0.00,WUHU216WMR968SP,2013-06-12 06:37:00,
2013-06-11 23:42:00,53.6,21.1,30.09,WSW,237,0.0,0.0,28,0.00,,,0.00,WUHU216WMR968SP,2013-06-12 06:42:00,
2013-06-11 23:47:00,53.6,21.1,30.09,WSW,238,0.0,0.0,28,0.00,,,0.00,WUHU216WMR968SP,2013-06-12 06:47:00,
2013-06-11 23:52:00,53.4,21.7,30.09,WSW,238,0.0,0.0,29,0.00,,,0.00,WUHU216WMR968SP,2013-06-12 06:52:00,
2013-06-11 23:57:00,53.2,21.5,30.09,WSW,238,0.0,0.0,29,0.00,,,0.00,WUHU216WMR968SP,2013-06-12 06:57:00,